This is the latest recevied weather packets stored in our database for station/object AB4CZ-1. If no packets are shown the sender has not sent any weather packets the latest 10 day(s).
| Time | Temp. | Humidity | Pressure | Rain* | Wind** | Luminosity | Snow |
|---|---|---|---|---|---|---|---|
| 1777933592 | 25° C | 36% | 1014.8 hPa | 0 mm | - | - | - |
| 1777933292 | 25° C | 36% | 1014.9 hPa | 0 mm | - | - | - |
| 1777933251 | 6.11° C | 95% | 1018 hPa | 0 mm | - | - | - |
| 1777933251 | 6.11° C | 95% | 1018.1 hPa | 0 mm | - | - | - |
| 1777933251 | 6.11° C | 95% | 1018.1 hPa | 0 mm | - | - | - |
| 1777932692 | 25.56° C | 35% | 1014.9 hPa | 0 mm | - | - | - |
| 1777932392 | 25.56° C | 35% | 1014.8 hPa | 0 mm | - | - | - |
| 1777932093 | 25.56° C | 34% | 1014.8 hPa | 0 mm | - | - | - |
| 1777931792 | 25.56° C | 37% | 1014.8 hPa | 0 mm | - | - | - |
| 1777931640 | 25.56° C | 36% | 1014.8 hPa | 0 mm | - | - | - |
| 1777931544 | 25.56° C | 36% | 1014.8 hPa | 0 mm | - | - | - |
| 1777931507 | 25.56° C | 36% | 1014.8 hPa | 0 mm | - | - | - |
| 1777931192 | 25.56° C | 35% | 1014.8 hPa | 0 mm | - | - | - |
| 1777929692 | 25.56° C | 37% | 1014.6 hPa | 0 mm | - | - | - |
| 1777929493 | 25.56° C | 36% | 1014.6 hPa | 0 mm | - | - | - |
| 1777929392 | 25.56° C | 36% | 1014.6 hPa | 0 mm | - | - | - |
| 1777929098 | 26.11° C | 38% | 1014.7 hPa | 0 mm | - | - | - |
| 1777928510 | 26.11° C | 34% | 1014.9 hPa | 0 mm | - | - | - |
| 1777927592 | 26.11° C | 37% | 1014.9 hPa | 0 mm | - | - | - |
| 1777927292 | 26.11° C | 35% | 1014.9 hPa | 0 mm | - | - | - |
| 1777926992 | 26.11° C | 35% | 1015 hPa | 0 mm | - | - | - |
| 1777926708 | 26.11° C | 39% | 1014.9 hPa | 0 mm | - | - | - |
| 1777925792 | 26.11° C | 33% | 1015.2 hPa | 0 mm | - | - | - |
| 1777925505 | 26.11° C | 34% | 1015.2 hPa | 0 mm | - | - | - |
| 1777924899 | 26.11° C | 35% | 1015.4 hPa | 0 mm | - | - | - |
* Rain latest hour (hover to see other rain measurements)
** Current wind speed in m/s (hover to see current wind gust speed)